EW9034 Weather Reports


Display with metric or nautical units.
time (UTC)temp
F
wind
direction
speed
MPH
gust
MPH
rain 1hr
in
rain 24hr
in
rain mn
in
humidity
%
barometer
mb
20260902073024 72 138 14.0 21.0 0.00 0.00 0.00 39 1001.9
20260902071525 72 140 15.0 22.0 0.00 0.00 0.00 39 1002.3
20260902070022 72 148 14.0 22.0 0.00 0.00 0.00 38 1002.3
20260902064519 72 148 13.0 21.0 0.00 0.00 0.00 38 1002.4
20260902063022 72 165 14.0 25.0 0.00 0.00 0.00 37 1002.7
20260902061534 72 157 15.0 23.0 0.00 0.00 0.00 37 1002.7
20260902060012 73 128 13.0 21.0 0.00 0.00 0.00 37 1002.6
20260902054512 73 151 14.0 24.0 0.00 0.00 0.00 36 1002.8
20260902053016 74 147 14.0 20.0 0.00 0.00 0.00 36 1002.8
20260902051510 74 149 14.0 22.0 0.00 0.00 0.00 35 1002.8
20260902050010 74 150 15.0 21.0 0.00 0.00 0.00 36 1003.1
20260902044509 74 153 12.0 21.0 0.00 0.00 0.00 36 1002.9
20260902043007 74 140 12.0 22.0 0.00 0.00 0.00 35 1003.0
20260902041507 74 128 15.0 23.0 0.00 0.00 0.00 35 1003.2
20260902040005 73 124 12.0 20.0 0.00 0.00 0.00 36 1003.2
20260902034505 73 125 9.0 15.0 0.00 0.00 0.00 37 1003.4
20260902033006 70 159 7.0 12.0 0.00 0.00 0.00 41 1003.6
20260902031505 68 135 2.0 5.0 0.00 0.00 0.00 45 1003.5
20260902030004 68 116 7.0 10.0 0.00 0.00 0.00 44 1003.4
20260902024507 68 117 6.0 8.0 0.00 0.00 0.00 47 1003.4
20260902023002 69 119 6.0 9.0 0.00 0.00 0.00 46 1003.3
20260902021504 71 109 4.0 7.0 0.00 0.00 0.00 43 1003.3
20260902020003 74 117 6.0 8.0 0.00 0.00 0.00 39 1003.2
20260902014600 76 118 6.0 9.0 0.00 0.00 0.00 38 1003.3
20260902013100 78 115 6.0 9.0 0.00 0.00 0.00 36 1003.2
20260902011559 80 126 4.0 8.0 0.00 0.00 0.00 31 1003.3
20260902010100 81 138 4.0 9.0 0.00 0.00 0.00 30 1003.4
20260902004557 82 123 5.0 13.0 0.00 0.00 0.00 29 1003.4
20260902003056 83 107 6.0 11.0 0.00 0.00 0.00 29 1003.5
20260902001554 84 135 5.0 12.0 0.00 0.00 0.00 27 1003.6
20260902000059 85 146 7.0 12.0 0.00 0.00 0.00 26 1003.8
20260901234552 86 173 8.0 14.0 0.00 0.00 0.00 24 1003.8
20260901233051 86 154 5.0 10.0 0.00 0.00 0.00 24 1003.8
20260901231550 85 137 5.0 9.0 0.00 0.00 0.00 25 1004.0
20260901230050 85 150 7.0 15.0 0.00 0.00 0.00 22 1004.1
20260901224546 86 161 9.0 13.0 0.00 0.00 0.00 23 1004.4
20260901223049 87 177 8.0 12.0 0.00 0.00 0.00 24 1004.4
20260901221543 87 156 4.0 12.0 0.00 0.00 0.00 23 1004.6
20260901220040 86 198 8.0 15.0 0.00 0.00 0.00 23 1004.8
20260901214542 87 158 8.0 13.0 0.00 0.00 0.00 22 1005.0
20260901213101 86 190 6.0 10.0 0.00 0.00 0.00 23 1005.3
20260901211536 86 156 7.0 15.0 0.00 0.00 0.00 24 1005.4
20260901210034 86 136 7.0 15.0 0.00 0.00 0.00 25 1005.6
20260901204538 87 189 7.0 14.0 0.00 0.00 0.00 23 1005.6
20260901203034 85 159 5.0 15.0 0.00 0.00 0.00 27 1005.7
20260901201530 85 155 5.0 14.0 0.00 0.00 0.00 25 1005.8
20260901200027 86 196 5.0 16.0 0.00 0.00 0.00 27 1006.0
20260901194526 86 180 9.0 14.0 0.00 0.00 0.00 24 1006.1
20260901193022 84 157 8.0 17.0 0.00 0.00 0.00 26 1006.4
20260901191520 85 146 7.0 15.0 0.00 0.00 0.00 28 1006.5
20260901190017 84 204 5.0 15.0 0.00 0.00 0.00 29 1007.0
20260901184522 83 166 6.0 12.0 0.00 0.00 0.00 29 1007.3
20260901183012 82 194 4.0 12.0 0.00 0.00 0.00 31 1007.4
20260901181509 82 231 6.0 11.0 0.00 0.00 0.00 32 1007.6
20260901180004 81 185 6.0 11.0 0.00 0.00 0.00 35 1007.9
20260901174503 78 334 2.0 6.0 0.00 0.00 0.00 41 1008.0
20260901173057 77 280 2.0 5.0 0.00 0.00 0.00 49 1008.2
20260901171606 75 271 1.0 6.0 0.00 0.00 0.00 47 1008.4
20260901170059 74 259 2.0 4.0 0.00 0.00 0.00 48 1008.4
20260901164552 72 254 2.0 4.0 0.00 0.00 0.00 53 1008.5
20260901163042 70 252 0.0 4.0 0.00 0.00 0.00 57 1008.7
20260901161541 70 250 0.0 0.0 0.00 0.00 0.00 56 1008.7
20260901160039 70 250 0.0 0.0 0.00 0.00 0.00 57 1008.9
20260901154534 68 249 0.0 0.0 0.00 0.00 0.00 56 1009.0
20260901153031 66 249 1.0 5.0 0.00 0.00 0.00 58 1009.2
20260901151529 66 249 0.0 2.0 0.00 0.00 0.00 63 1009.3
20260901150025 63 249 0.0 3.0 0.00 0.00 0.00 69 1009.3
20260901144554 61 249 0.0 0.0 0.00 0.00 0.00 72 1009.2
20260901143010 60 249 0.0 0.0 0.00 0.00 0.00 72 1009.2
20260901141616 57 249 0.0 0.0 0.00 0.00 0.00 76 1009.1
20260901140003 55 249 0.0 0.0 0.00 0.00 0.00 80 1009.0
20260901134504 52 249 0.0 3.0 0.00 0.00 0.00 80 1008.9
20260901133001 52 249 0.0 1.0 0.00 0.00 0.00 79 1008.8
20260901131559 53 249 1.0 5.0 0.00 0.00 0.00 75 1008.8
20260901130055 56 247 0.0 3.0 0.00 0.00 0.00 69 1008.9
20260901124555 58 242 1.0 4.0 0.00 0.00 0.00 66 1008.9
20260901123051 58 248 3.0 7.0 0.00 0.00 0.00 66 1008.9
20260901121554 56 261 4.0 7.0 0.00 0.00 0.00 71 1008.9
20260901120050 58 247 3.0 8.0 0.00 0.00 0.00 65 1008.9
20260901114558 61 184 4.0 11.0 0.00 0.00 0.00 59 1008.9
20260901113047 60 161 8.0 14.0 0.00 0.00 0.00 61 1009.0
20260901111547 60 178 7.0 12.0 0.00 0.00 0.00 62 1009.3
20260901110044 58 167 10.0 16.0 0.00 0.00 0.00 70 1009.2
20260901104538 54 186 4.0 8.0 0.00 0.00 0.00 81 1009.4
20260901103034 48 225 1.0 8.0 0.00 0.00 0.00 89 1009.6
20260901101533 47 232 3.0 5.0 0.00 0.00 0.00 90 1009.6
20260901100035 46 226 2.0 4.0 0.00 0.00 0.00 90 1009.6
20260901094531 47 225 0.0 1.0 0.00 0.00 0.00 89 1009.7
20260901093030 47 225 0.0 4.0 0.00 0.00 0.00 90 1009.7
20260901091528 47 225 0.0 2.0 0.00 0.00 0.00 90 1009.5
20260901090027 46 225 0.0 3.0 0.00 0.00 0.00 90 1009.6
20260901084524 47 225 1.0 2.0 0.00 0.00 0.00 89 1009.6
20260901083022 47 225 0.0 2.0 0.00 0.00 0.00 90 1009.6
20260901081529 47 225 0.0 3.0 0.00 0.00 0.00 90 1009.7
20260901080023 47 225 0.0 3.0 0.00 0.00 0.00 89 1009.8
20260901074515 47 223 2.0 3.0 0.00 0.00 0.00 89 1009.8